Regional Weather Roundup
Issued by NWS

Home | Current Version | Previous Version | Text Only | Print | Product List | Glossary Off
Versions: 1 2 3 4 5 6 7 8 9 10 11 12 13 14 15 16 17 18 19 20 21 22 23 24 25 26 27 28 29 30 31 32 33 34 35 36 37 38 39 40 41 42 43 44 45 46 47 48 49 50

000
ASUS43 KIND 240559
RWRIN

WEATHER ROUNDUP FOR INDIANA
NATIONAL WEATHER SERVICE INDIANAPOLIS IN
100 AM EST TUE JAN 24 2017

NOTE: "FAIR" INDICATES FEW OR NO CLOUDS BELOW 12,000 FEET WITH NO
SIGNIFICANT WEATHER AND/OR OBSTRUCTIONS TO VISIBILITY.

* - STATION DOES NOT REPORT WEATHER SUCH AS PRECIPITATION OR FOG.

+ - STATION NOT QUALITY CONTROLLED BY THE NATIONAL WEATHER SERVICE.
    USE DATA WITH CAUTION...ESPECIALLY DEWPOINT AND RELATIVE
    HUMIDITY OBSERVATIONS.

INZ001>003-010>013-019-020-240700-
NORTHWEST INDIANA

CITY           SKY/WX    TMP DP  RH WIND       PRES   REMARKS
MONTICELLO +   CLOUDY    38  36  90 NW7       29.77F
6HR MIN TEMP:  37; 6HR MAX TEMP:  38;


$$

LMZ046-743>745-240700-
SOUTHERN LAKE MICHIGAN

STATION/POSITION TIME  TEMP    WIND        PRES    WAVE
                       AIR SEA DIR/SP/G            HT
                 (UTC) (F)     (DEG/KT/KT) (MB)    (FT)
BURNS HARBOR     0540   36     330/  8/  9 1009.5F
MICHIGAN CITY    0530   37     300/ 12/ 12   N/A

$$

INZ004-005-014>016-021>024-240700-
NORTH CENTRAL INDIANA

CITY           SKY/WX    TMP DP  RH WIND       PRES   REMARKS
GOSHEN         CLOUDY    39  36  89 NW9       29.73F
6HR MIN TEMP:  39; 6HR MAX TEMP:  40; 6HR PCP:  0.01;

SOUTH BEND     CLOUDY    37  37 100 NW12      29.77S
6HR MIN TEMP:  37; 6HR MAX TEMP:  38;


$$

INZ006>009-017-018-025>027-240700-
NORTHEAST INDIANA

CITY           SKY/WX    TMP DP  RH WIND       PRES   REMARKS
ANGOLA *+      CLOUDY    41  30  65 NW3       29.70F
FORT WAYNE     DRIZZLE   41  38  89 NW7       29.72F
6HR MIN TEMP:  41; 6HR MAX TEMP:  44; 6HR PCP:  0.06;

KENDALLVILLE + CLOUDY    39  39 100 NW6       29.72S FOG

$$

INZ028-029-035-036-043>045-051>053-240700-
WEST CENTRAL INDIANA

CITY           SKY/WX    TMP DP  RH WIND       PRES   REMARKS
CRAWFORDSVL +  CLOUDY    37  37 100 NW7       29.79S
6HR MIN TEMP:  36; 6HR MAX TEMP:  37;

LAFAYETTE      CLOUDY    39  36  89 NW9       29.79S
6HR MIN TEMP:  38; 6HR MAX TEMP:  39;

TERRE HAUTE    CLOUDY    40  34  79 NW6       29.82R
6HR MIN TEMP:  39; 6HR MAX TEMP:  40;


$$

INZ030>032-037>040-046>048-054>057-064-065-240700-
CENTRAL INDIANA

CITY           SKY/WX    TMP DP  RH WIND       PRES   REMARKS
INDIANAPOLIS   CLOUDY    39  37  92 NW10      29.76F
6HR MIN TEMP:  39; 6HR MAX TEMP:  41; 6HR PCP: TRACE;

-EAGLE CREEK   CLOUDY    40  36  86 NW10      29.76S
6HR MIN TEMP:  40; 6HR MAX TEMP:  41;

KOKOMO +       CLOUDY    38  37  97 NW14      29.76R
6HR MIN TEMP:  38; 6HR MAX TEMP:  40; 6HR PCP:  0.01;

MT COMFORT *+  CLOUDY    37  37 100 NW10G20   29.76R
SHELBYVILLE    CLOUDY    41  37  86 NW10      29.75R
6HR MIN TEMP:  40; 6HR MAX TEMP:  43;


$$

INZ033-034-041-042-049-050-058-059-240700-
EAST CENTRAL INDIANA

CITY           SKY/WX    TMP DP  RH WIND       PRES   REMARKS
MUNCIE         CLOUDY    41  39  93 N10       29.71F
6HR MIN TEMP:  41; 6HR MAX TEMP:  44; 6HR PCP:  0.04;


$$

INZ060-061-067>069-081>083-085>088-240700-
SOUTHWEST INDIANA

CITY           SKY/WX    TMP DP  RH WIND       PRES   REMARKS
EVANSVILLE     CLOUDY    42  35  76 NW5       29.85S
6HR MIN TEMP:  42; 6HR MAX TEMP:  43;

HUNTINGBURG *+ CLOUDY    39  35  86 NW13G18   29.83S
6HR MIN TEMP:  39; 6HR MAX TEMP:  41;


$$

INZ062-063-066-070>080-084-089>092-240700-
SOUTH CENTRAL AND SOUTHEAST INDIANA

CITY           SKY/WX    TMP DP  RH WIND       PRES   REMARKS
BLOOMINGTON    CLOUDY    39  34  82 W8        29.79R
6HR MIN TEMP:  39; 6HR MAX TEMP:  40;

MADISON *+     CLOUDY    41  37  87 W10       29.78S
SEYMOUR +      CLOUDY    41  39  93 NW8       29.78S

$$





USA.gov is the U.S. government's official web portal to all federal, state and local government web resources and services.